Kekaha, HI

1:18 AM HST on February 23, 2017 (GMT -1000)
Barking Sands PMRF

Weather History for PHBK - February, 2013

Change the Weather History Date:

Saturday, February 16, 2013

  Actual Average Record
Temperature  
Mean Temperature 72 °F -  
Max Temperature 81 °F 81 °F 86 °F (1964)
Min Temperature 64 °F 60 °F 51 °F (1970)
Cooling Degree Days 8    
Growing Degree Days 22 (Base 50)    
Moisture  
Dew Point 58 °F    
Average Humidity 59    
Maximum Humidity 87    
Minimum Humidity 37    
Precipitation  
Precipitation 0.00 in - - ()
Sea Level Pressure  
Sea Level Pressure 30.11 in    
Wind  
Wind Speed 4 mph (SE)    
Max Wind Speed 14 mph    
Max Gust Speed 21 mph    
Visibility 10 miles    
Events      
Averages and records for this station are not official NWS values.
T = Trace of Precipitation, MM = Missing Value Source: NWS Daily Summary

Daily Weather History Graph

Daily Weather History Graph

Search for Another Location

Airport or City:

Trip Planner

Search our weather history database for the weather conditions in past years. The results will help you decide how hot, cold, wet, or windy it might be!

Date:

Astronomy

Feb. 16, 2013 Rise Set
Actual Time 7:09 AM HST 6:37 PM HST
Civil Twilight 6:46 AM HST 6:59 PM HST
Nautical Twilight 6:20 AM HST 7:26 PM HST
Astronomical Twilight 5:54 AM HST 7:52 PM HST
Moon 11:23 AM HST (2/16) No Moon Set
Length of Visible Light 12h 13m
Length of Day
11h 27m
Waxing Crescent, 41% of the Moon is Illuminated
Feb 16
Waxing Crescent
Feb 17
First Quarter
Feb 25
Full
Mar 4
Last Quarter
Mar 11
New

Hourly Weather History & Observations

Time (HST) Temp. Heat Index Dew Point Humidity Pressure Visibility Wind Dir Wind Speed Gust Speed Precip Events Conditions
12:56 AM 71.1 °F - 63.0 °F 75% 30.11 in 10.0 mi Calm Calm - 0.00 in   Overcast
1:56 AM 70.0 °F - 64.9 °F 84% 30.10 in 10.0 mi SE 3.5 mph - N/A   Mostly Cloudy
2:56 AM 69.1 °F - 64.9 °F 87% 30.09 in 10.0 mi Calm Calm - N/A   Clear
3:56 AM 66.9 °F - 61.0 °F 81% 30.09 in 10.0 mi East 3.5 mph - N/A   Clear
4:56 AM 64.9 °F - 60.1 °F 84% 30.09 in 10.0 mi SSE 3.5 mph - N/A   Clear
5:56 AM 66.9 °F - 63.0 °F 87% 30.11 in 10.0 mi ESE 4.6 mph - N/A   Mostly Cloudy
6:56 AM 68.0 °F - 60.1 °F 76% 30.13 in 10.0 mi SE 5.8 mph - N/A   Partly Cloudy
7:56 AM 68.0 °F - 62.1 °F 81% 30.14 in 10.0 mi SSE 4.6 mph - N/A   Partly Cloudy
8:56 AM 73.0 °F - 64.0 °F 73% 30.15 in 10.0 mi SE 4.6 mph - N/A   Mostly Cloudy
9:56 AM 77.0 °F - 59.0 °F 54% 30.15 in 10.0 mi NNW 3.5 mph - N/A   Mostly Cloudy
10:56 AM 77.0 °F - 62.1 °F 60% 30.14 in 10.0 mi NW 8.1 mph - N/A   Mostly Cloudy
11:56 AM 78.1 °F - 62.1 °F 58% 30.12 in 10.0 mi NNW 6.9 mph - N/A   Scattered Clouds
12:56 PM 81.0 °F 81.1 °F 57.9 °F 45% 30.09 in 10.0 mi WSW 11.5 mph - N/A   Partly Cloudy
1:56 PM 81.0 °F 81.3 °F 59.0 °F 47% 30.07 in 10.0 mi West 13.8 mph - N/A   Partly Cloudy
2:56 PM 81.0 °F 80.7 °F 55.0 °F 41% 30.06 in 10.0 mi WNW 8.1 mph - N/A   Partly Cloudy
3:56 PM 81.0 °F 80.8 °F 55.9 °F 42% 30.05 in 10.0 mi Variable 5.8 mph - N/A   Partly Cloudy
4:56 PM 79.0 °F - 53.1 °F 40% 30.06 in 10.0 mi North 9.2 mph 20.7 mph N/A   Clear
5:56 PM 77.0 °F - 53.1 °F 43% 30.09 in 10.0 mi Calm Calm - N/A   Clear
6:56 PM 75.9 °F - 54.0 °F 46% 30.09 in 10.0 mi West 6.9 mph - N/A   Clear
7:56 PM 75.0 °F - 46.9 °F 37% 30.11 in 10.0 mi Calm Calm - N/A   Clear
8:56 PM 70.0 °F - 50.0 °F 49% 30.13 in 10.0 mi ENE 3.5 mph - N/A   Clear
9:56 PM 73.9 °F - 50.0 °F 43% 30.14 in 10.0 mi SSE 5.8 mph - N/A   Clear
10:56 PM 75.9 °F - 51.1 °F 42% 30.14 in 10.0 mi South 3.5 mph - N/A   Clear
11:56 PM 75.0 °F - 51.1 °F 43% 30.15 in 10.0 mi East 8.1 mph 17.3 mph N/A   Clear